weather.gov     
National Weather Service

Regional Weather Roundup
NWS Homepage
This page is being discontinued on March 12, 2014.
The same data is available at this site. Please update your bookmarks.
Thank you, and we apologize for the inconvenience.
Please send an email to SR-SRH.Webmaster@noaa.gov with any concerns.


Current Version
Previous Version:    01  02  03  04  05  06  07  08  09  10  11  12  13  14  15  16  17  18  19  20  21  22  23  24  25  26  27  28  29  30  
   31  32  33  34  35  36  37  38  39  40  41  42  43  44  45  46  47  48  49  50  51  52  53  54  55  56  57  58  59  60  
[Printable]
414
ASUS44 KOHX 281210
RWROHX
MIDDLE TENNESSEE HOURLY WEATHER ROUNDUP
NATIONAL WEATHER SERVICE NASHVILLE TN
600 AM CST WED JAN 28 2015

NOTE: "FAIR" INDICATES FEW OR NO CLOUDS BELOW 12,000 FEET WITH
NO SIGNIFICANT WEATHER AND/OR OBSTRUCTIONS TO VISIBILITY.

* THESE REPORTS ARE NOT UNDER NWS QUALITY CONTROL AND MAY NOT
  REPORT WEATHER SUCH AS PRECIPITATION AND FOG.


TNZ005>011-023>034-057-059-062>066-078-080-281300
...NORTHERN MIDDLE TENNESSEE...

CITY           SKY/WX    TMP DP  RH WIND       PRES   REMARKS
CLARKSVILLE    CLOUDY    32  27  81 E7        30.30R WCI  26
CROSSVILLE     CLEAR     24  16  71 NE6       30.24R WCI  17
GALLATIN         N/A     29  22  75 NE3       30.31R
DICKSON        CLOUDY    30  27  86 SE5       30.27R WCI  25
LEBANON        PTCLDY    30  23  75 NE5       30.29R WCI  25
LIVINGSTON     CLEAR     24  18  78 NE5       30.27R WCI  18
NASHVILLE      CLOUDY    33  25  72 E9        30.31R WCI  25
WEST NASHVILLE MOCLDY    30  27  86 NE6       30.31R WCI  24
PORTLAND       PTCLDY    27  21  80 E7        30.28R WCI  19
SMYRNA         PTCLDY    30  24  78 E6        30.32R WCI  24
SPARTA         CLEAR     25  19  80 NE3       30.27R
$$
TNZ056-058-060-061-075>077-079-093>097-281300
...SOUTHERN MIDDLE TENNESSEE...

CITY           SKY/WX    TMP DP  RH WIND       PRES   REMARKS
COLUMBIA       PTCLDY    30  30 100 E3        30.27R
LEWISBURG      PTCLDY    28  24  85 NE3       30.27R
MCMINNVILLE    MOCLDY    28  23  80 NE7       30.27R WCI  21
MURFREESBORO   CLOUDY    31  26  81 NE6       30.30R WCI  25
SHELBYVILLE    CLOUDY    32  28  86 NE7       30.29R WCI  26
TULLAHOMA      CLOUDY    30  23  74 NE7       30.26R WCI  23
WINCHESTER     CLOUDY    30  25  80 NE7       30.27R WCI  23
$$


...KEY TO REMARKS...
VSB - VISIBILITY IN MILES
WCI - WIND CHILL INDEX
HX  - HEAT INDEX





U.S. Dept. of Commerce
NOAA National Weather Service
1325 East West Highway
Silver Spring, MD 20910
E-mail: w-nws.webmaster@noaa.gov
Page last modified: May 16, 2007
NATIONAL WEATHER SERVICE: for Safety, for Work, for Fun - FOR LIFE